Location: Ajisawe
(8.4333°N, 4.3833°E)
Time: 20:39:13
(UTC+00:00)

Transit 4A - Pass Details

Date: 28 April 2021
Orbit: 870 x 974 km, 66.8° (Epoch: 06 May)

Event Time Altitude Azimuth Distance (km) Brightness Sun altitude
Rises 19:01:06 0° 178° (S) 3,661 10.8 -17.2°
Reaches altitude 10° 19:04:00 10° 168° (SSE) 2,711 10.0 -17.9°
Enters shadow 19:07:42 26° 136° (SE) 1,788 8.9 -18.8°
Exits shadow 19:15:13 - 47° (NE) 2,806 10.1 -20.5°
Sets 19:17:36 0° 39° (NE) 3,604 10.8 -21.1°
